Date String (YYYY-MM-DD hh:mm:ss) UTC,Instrument flags,absolute air pressure of the measurement (hPa),sample flow rate (lpm),inlet stack bypass flow (lpm),air temperature of the measurement (°C),ambient temperature measured by the external sensor (°C),aerosol sample conditioner tube jacket temperature (°C),OPC LED temperature (°C),internal box temperature (°C),relative humidity of the measurement (%),span deviation,mass concentration of particles derived from Lorenz-Mie calculation of OPC scattering (μg/m³),mass concentration of particles derived from Lorenz-Mie calculation of OPC scattering (μg/m³),mass concentration of particles derived from Lorenz-Mie calculation of OPC scattering (μg/m³)
DateTimeUTC,F1_M11,P_M11,Q1_M11,Q2_M11,T1_M11,T2_M11,T3_M11,T4_M11,T5_M11,U1_M11,ZSPAN_M11,X0_M11,X2_M11,X1_M11
2023-08-02 10:00:00,SystemResetWarning,0833.2,5.00,000.00,029.5,027.0,000.0,038.1,030.9,27.6,0000.0,0007.75,0003.34,0002.68
2023-08-02 10:01:00,SystemResetWarning,0833.3,5.01,000.00,029.5,027.3,000.0,038.0,030.9,27.6,0000.0,0007.83,0003.36,0002.69
2023-08-02 10:02:00,SystemResetWarning,0833.3,5.01,000.00,029.5,027.5,000.0,038.0,031.0,28.9,0000.0,0007.83,0003.37,0002.70
2023-08-02 10:03:00,SystemResetWarning,0833.2,5.00,000.00,029.5,027.7,000.0,038.0,031.0,28.3,0000.0,0007.63,0003.36,0002.69
2023-08-02 10:04:00,SystemResetWarning,0833.2,4.99,000.00,029.5,027.9,000.0,038.0,031.1,28.2,0000.0,0006.68,0003.35,0002.68
2023-08-02 10:05:00,SystemResetWarning,0833.2,4.99,000.00,029.5,028.0,000.0,038.0,031.1,28.5,0000.0,0006.58,0003.32,0002.67
2023-08-02 10:06:00,SystemResetWarning,0833.2,5.00,000.00,029.6,028.1,000.0,038.0,031.1,28.2,0000.0,0006.35,0003.28,0002.68
2023-08-02 10:07:00,SystemResetWarning,0833.3,5.01,000.00,029.6,028.2,000.0,038.0,031.2,27.6,0000.0,0006.18,0003.26,0002.67
2023-08-02 10:08:00,SystemResetWarning,0833.2,5.00,000.00,029.6,028.3,000.0,038.1,031.2,27.5,0000.0,0006.00,0003.27,0002.67
2023-08-02 10:09:00,SystemResetWarning,0833.2,5.00,000.00,029.6,028.3,000.0,038.1,031.2,28.2,0000.0,0005.61,0003.28,0002.67
2023-08-02 10:10:00,SystemResetWarning,0833.2,5.00,000.00,029.7,028.4,000.0,038.1,031.2,28.1,0000.0,0005.61,0003.28,0002.67
2023-08-02 10:11:00,SystemResetWarning,0833.2,5.01,000.00,029.7,028.4,000.0,038.1,031.3,27.5,0000.0,0005.55,0003.30,0002.66
2023-08-02 10:12:00,SystemResetWarning,0833.2,5.01,000.00,029.7,028.5,000.0,038.1,031.3,27.2,0000.0,0005.41,0003.28,0002.65
2023-08-02 10:13:00,SystemResetWarning,0833.2,5.00,000.00,029.7,028.5,000.0,038.1,031.3,27.1,0000.0,0005.27,0003.24,0002.62
2023-08-02 10:14:00,SystemResetWarning,0833.2,4.99,000.00,029.8,028.6,000.0,038.1,031.3,27.5,0000.0,0005.19,0003.23,0002.59
2023-08-02 10:15:00,SystemResetWarning,0833.2,5.00,000.00,029.8,028.6,000.0,038.2,031.4,27.0,0000.0,0004.93,0003.17,0002.55
2023-08-02 10:16:00,SystemResetWarning,0833.2,5.00,000.00,029.8,028.6,000.0,038.2,031.4,26.4,0000.0,0004.73,0003.13,0002.52
2023-08-02 10:17:00,SystemResetWarning,0833.2,5.00,000.00,029.8,028.6,000.0,038.2,031.4,26.1,0000.0,0004.67,0003.10,0002.46
2023-08-02 10:18:00,SystemResetWarning,0833.2,5.01,000.00,029.9,028.7,000.0,038.2,031.4,26.1,0000.0,0004.68,0003.07,0002.42
2023-08-02 10:19:00,SystemResetWarning,0833.3,4.99,000.00,029.9,027.7,000.0,038.2,031.4,26.2,0000.0,0004.43,0003.01,0002.38
2023-08-02 10:20:00,SystemResetWarning,0833.2,5.00,000.00,029.8,026.0,000.0,038.0,031.1,26.0,0000.0,0004.37,0002.96,0002.33
2023-08-02 10:21:00,SystemResetWarning,0833.2,5.02,000.00,029.7,025.5,000.0,038.0,030.9,26.3,0000.0,0004.39,0002.88,0002.28
2023-08-02 10:22:00,SystemResetWarning,0833.2,5.00,000.00,029.6,025.6,000.0,038.0,030.7,26.5,0000.0,0004.33,0002.81,0002.25
2023-08-02 10:23:00,SystemResetWarning,0833.2,5.00,000.00,029.5,026.0,000.0,038.0,030.7,26.7,0000.0,0004.37,0002.78,0002.21
2023-08-02 10:24:00,SystemResetWarning,0833.2,5.00,000.00,029.5,026.4,000.0,038.0,030.8,27.1,0000.0,0004.33,0002.74,0002.18
2023-08-02 10:25:00,SystemResetWarning,0833.2,5.00,000.00,029.5,026.8,000.0,038.0,030.9,27.3,0000.0,0004.24,0002.66,0002.15
2023-08-02 10:26:00,SystemResetWarning,0833.3,5.00,000.00,029.5,027.1,000.0,038.0,030.9,28.7,0000.0,0004.22,0002.60,0002.12
2023-08-02 10:27:00,SystemResetWarning,0833.2,5.00,000.00,029.5,027.3,000.0,038.0,031.0,30.2,0000.0,0004.15,0002.55,0002.09
2023-08-02 10:28:00,SystemResetWarning,0833.2,5.00,000.00,029.5,027.6,000.0,038.0,031.0,29.9,0000.0,0004.08,0002.53,0002.08
2023-08-02 10:29:00,SystemResetWarning,0833.2,5.00,000.00,029.5,027.7,000.0,038.0,031.0,29.7,0000.0,0003.99,0002.50,0002.09
2023-08-02 10:30:00,SystemResetWarning,0833.2,5.00,000.00,029.5,027.9,000.0,038.0,031.1,30.1,0000.0,0003.95,0002.48,0002.07
2023-08-02 10:31:00,SystemResetWarning,0833.2,4.99,000.00,029.5,028.0,000.0,038.0,031.1,30.6,0000.0,0003.97,0002.49,0002.06
2023-08-02 10:32:00,SystemResetWarning,0833.2,5.00,000.00,029.6,028.1,000.0,038.0,031.1,30.7,0000.0,0003.93,0002.53,0002.05
2023-08-02 10:33:00,SystemResetWarning,0833.2,5.00,000.00,029.6,028.2,000.0,038.0,031.2,29.9,0000.0,0003.81,0002.51,0002.03
2023-08-02 10:34:00,SystemResetWarning,0833.2,5.00,000.00,029.6,028.3,000.0,038.1,031.2,29.4,0000.0,0003.84,0002.50,0002.01
2023-08-02 10:35:00,SystemResetWarning,0833.2,5.00,000.00,029.6,028.4,000.0,038.1,031.2,29.0,0000.0,0003.84,0002.51,0002.00
2023-08-02 10:36:00,SystemResetWarning,0833.2,5.00,000.00,029.7,028.4,000.0,038.1,031.3,28.5,0000.0,0003.78,0002.48,0001.98
2023-08-02 10:37:00,SystemResetWarning,0833.2,5.00,000.00,029.7,028.5,000.0,038.1,031.3,28.1,0000.0,0003.64,0002.45,0001.95
2023-08-02 10:38:00,SystemResetWarning,0833.1,5.01,000.00,029.7,028.5,000.0,038.1,031.3,28.6,0000.0,0003.58,0002.43,0001.93
2023-08-02 10:39:00,SystemResetWarning,0833.2,5.00,000.00,029.7,028.6,000.0,038.1,031.3,27.7,0000.0,0003.62,0002.43,0001.91
2023-08-02 10:40:00,SystemResetWarning,0833.1,4.99,000.00,029.8,028.6,000.0,038.1,031.4,27.4,0000.0,0003.70,0002.43,0001.87
2023-08-02 10:41:00,SystemResetWarning,0833.2,4.99,000.00,029.8,028.6,000.0,038.2,031.4,27.3,0000.0,0004.54,0002.41,0001.86
2023-08-02 10:42:00,SystemResetWarning,0833.1,4.99,000.00,029.8,028.7,000.0,038.2,031.4,27.5,0000.0,0004.89,0002.34,0001.83
2023-08-02 10:43:00,SystemResetWarning,0833.1,5.00,000.00,029.8,028.7,000.0,038.2,031.5,27.3,0000.0,0004.81,0002.30,0001.81
2023-08-02 10:44:00,SystemResetWarning,0833.2,5.00,000.00,029.8,027.9,000.0,038.2,031.4,26.9,0000.0,0004.92,0002.33,0001.81
2023-08-02 10:45:00,SystemResetWarning,0833.2,5.00,000.00,029.8,026.2,000.0,038.0,031.1,27.0,0000.0,0004.79,0002.30,0001.80
2023-08-02 10:46:00,SystemResetWarning,0833.4,5.01,000.00,029.7,025.6,000.0,038.0,030.8,26.3,0000.0,0005.13,0002.34,0001.81
2023-08-02 10:47:00,SystemResetWarning,0833.1,5.01,000.00,029.6,025.7,000.0,038.0,030.7,26.9,0000.0,0005.69,0002.40,0001.86
2023-08-02 10:48:00,SystemResetWarning,0833.2,4.99,000.00,029.5,026.1,000.0,038.0,030.7,28.1,0000.0,0005.78,0002.48,0001.91
2023-08-02 10:49:00,SystemResetWarning,0833.2,4.99,000.00,029.5,026.4,000.0,038.0,030.8,30.5,0000.0,0005.89,0002.56,0001.96
2023-08-02 10:50:00,SystemResetWarning,0833.2,5.00,000.00,029.5,026.8,000.0,038.0,030.9,30.9,0000.0,0005.96,0002.63,0002.04
2023-08-02 10:51:00,SystemResetWarning,0833.0,5.02,000.00,029.5,027.1,000.0,038.0,030.9,30.9,0000.0,0006.08,0002.69,0002.10
2023-08-02 10:52:00,SystemResetWarning,0833.0,5.00,000.00,029.5,027.3,000.0,038.0,030.9,30.5,0000.0,0005.44,0002.76,0002.16
2023-08-02 10:53:00,SystemResetWarning,0833.0,4.99,000.00,029.5,027.5,000.0,038.0,031.0,30.4,0000.0,0005.11,0002.86,0002.21
2023-08-02 10:54:00,SystemResetWarning,0833.0,5.00,000.00,029.5,027.7,000.0,038.0,031.0,30.2,0000.0,0005.17,0002.91,0002.26
2023-08-02 10:55:00,SystemResetWarning,0833.0,5.00,000.00,029.5,027.8,000.0,038.0,031.1,29.9,0000.0,0005.09,0002.93,0002.30
2023-08-02 10:56:00,SystemResetWarning,0833.0,5.01,000.00,029.5,027.9,000.0,038.0,031.1,29.5,0000.0,0005.09,0002.96,0002.31
2023-08-02 10:57:00,SystemResetWarning,0833.2,5.00,000.00,029.5,028.0,000.0,038.0,031.1,29.4,0000.0,0004.81,0002.93,0002.31
2023-08-02 10:58:00,SystemResetWarning,0833.2,4.99,000.00,029.5,028.1,000.0,038.0,031.1,29.6,0000.0,0004.28,0002.90,0002.29
2023-08-02 10:59:00,SystemResetWarning,0833.1,5.00,000.00,029.6,028.2,000.0,038.0,031.1,30.1,0000.0,0004.39,0002.87,0002.27
